Regional Weather Roundup
Issued by NWS Columbia, SC

Home | Current Version | Previous Version | Text Only | Print | Product List | Glossary On
Versions: 1 2 3 4 5 6 7 8 9 10 11 12 13 14 15 16 17 18 19 20 21 22 23 24 25 26 27 28
000
ASUS42 KCAE 052110
RWRCAE
REGIONAL WEATHER ROUNDUP
NATIONAL WEATHER SERVICE COLUMBIA SC
400 PM EST MON DEC 05 2016

NOTE: "FAIR" INDICATES FEW OR NO CLOUDS BELOW 12,000 FEET WITH NO
SIGNIFICANT WEATHER AND/OR OBSTRUCTIONS TO VISIBILITY.

NOT ALL STATIONS ARE QUALITY CONTROLLED BY THE NATIONAL
WEATHER SERVICE. USE DATA WITH CAUTION...ESPECIALLY
DEWPOINT OBSERVATIONS.

SCZ001>056-GAZ040-063>065-077-052200-
...UPSTATE SOUTH CAROLINA...

CITY           SKY/WX    TMP DP  RH WIND       PRES   REMARKS
ANDERSON       RAIN      54  51  90 CALM      29.98R FOG
LIBERTY        LGT RAIN  52  50  95 CALM      29.97R
SPARTANBURG    MOSUNNY   54  45  71 NE3       29.97F
CLEMSON        RAIN      53  50  89 CALM      29.99R FOG
GREENVILLE     LGT RAIN  56  48  74 NE7       29.97F
GREENWOOD      PTSUNNY   54  47  77 N5        29.98R
GREER          LGT RAIN  54  48  80 NE5       29.97R
ROCK HILL      MOSUNNY   57  46  66 NE3       29.98R
CHESTER        MOCLDY    55  46  71 NE3       29.99R
LAURENS        RAIN      52  52 100 NE5       29.96S


...CENTRAL SOUTH CAROLINA...

CITY           SKY/WX    TMP DP  RH WIND       PRES   REMARKS
COLUMBIA APT   CLOUDY    59  49  69 E5        29.95R
COLUMBIA OWENS CLOUDY    59  49  69 CALM      29.96R
MCENTIRE ANGB  CLOUDY    57  49  75 NE3       29.96R
ORANGEBURG     CLOUDY    58  51  78 E6        29.95R
SUMTER SHAW    CLOUDY    58  49  73 E5        29.94R
NEWBERRY       MOCLDY    54  50  87 NE6       29.98F
AIKEN          MOCLDY    55  50  82 NE8       29.97F
MANNING        MOCLDY    57  50  77 NE6       29.96S
LANCASTER      CLOUDY    57  48  72 NE3       29.98R
WINNSBORO      CLOUDY    55  50  82 NE7       29.96R


...EASTERN AND COASTAL SOUTH CAROLINA...

CITY           SKY/WX    TMP DP  RH WIND       PRES   REMARKS
MYRTLE BEACH   MOSUNNY   61  48  63 NE12      29.98R
N MYRTLE BCH   SUNNY     60  51  72 N7        29.96S
CONWAY         FAIR      57  50  77 NE7       29.97R
MARION         FAIR      57  46  67 NE6       29.98R
HARTSVILLE     FAIR      57  46  67 E5        29.97R
FLORENCE       CLOUDY    60  49  66 NE8       29.98R
DARLINGTON     CLOUDY    60  50  69 NE5       29.98R
CHARLESTON APT CLOUDY    61  54  77 NE6       29.95R
WALTERBORO     CLOUDY    61 N/A N/A E3        29.96R
BEAUFORT       RAIN      59  57  93 CALM      29.94R FOG
HILTON HEAD    CLOUDY    61  57  88 CALM      29.94R


...EASTERN GEORGIA...

CITY           SKY/WX    TMP DP  RH WIND       PRES   REMARKS
AUGUSTA BUSH F CLOUDY    59  51  75 CALM      29.95R
AUGUSTA DANIEL PTSUNNY   58  50  75 NE5       29.95R
THOMSON        CLOUDY    56  54  93 CALM      30.01R
WASHINGTON     FAIR      55  55 100 CALM      29.97R
CLAXTON        CLOUDY   N/A N/A N/A CALM      29.93R FOG
SYLVANIA       HVY RAIN N/A N/A N/A CALM      29.94S
STATESBORO     RAIN      58  58 100 CALM      29.93R
SAVANNAH       LGT RAIN  61  59  93 E6        29.92F VSB 1


...SOUTHERN NORTH CAROLINA...

CITY           SKY/WX    TMP DP  RH WIND       PRES   REMARKS
CHARLOTTE      CLOUDY    58  45  62 NE7       29.98S
MONROE         PTSUNNY   57  45  64 E6        29.97R
WADESBORO      PTCLDY    60  47  62 E5        29.98S
ROCKINGHAM     PTCLDY    59  47  66 NE8       29.97S
RUTHERFORDTON  CLOUDY    57  48  73 S6        29.99R
ASHEVILLE      CLOUDY    54  45  71 NW5       29.98R

$$




USA.gov is the U.S. government's official web portal to all federal, state and local government web resources and services.